Weather in Maly Anzas

Russia / Republic of Khakassia     52°23′06″N   89°41′43″E
temp.,
°C
wind,
m/s
gust,
m/s
humid.,
%
clouds,
%
prec.,
mm/h
press.,
hPa
HPBL,
m
10 may, mon
mon1001:00+1ne2398100 1.2 1019205
04:000ene139397 0.2 1020254
07:00+1e12876 0.2 1022352
10:00+5e23627 0.0 10211003
13:00+8ene34445 0.0 10191483
16:00+10ne354216 0.0 10161771
19:00+6ne35595 0.0 1018890
22:000e21930 0.0 101922
11 may, tue
tue1101:00−1se21954 0.0 101724
04:00−1se119592 0.0 101618
07:00+1e1283100 0.0 1015163
10:00+7ne2254100 0.0 1013739
13:00+11nne2244100 0.0 10111264
16:00+11n3248100 0.0 10111349
19:00+9n2259100 0.0 1013521
22:00+5wsw1169100 0.0 101511
12 may, wed
wed1201:00+5sw2274100 0.1 101524
04:00+4sw1287100 0.8 101573
07:00+5sw1188100 1.2 1015138
10:00+8nne2264100 0.1 1014950
13:00+9nne2356100 0.3 10141501
16:00+10ne244899 0.3 10131722
19:00+9ne345957 0.3 10151019
22:00+5nne1177100 0.1 101711
13 may, thu
thu1301:00+3n1188100 0.2 101910
04:00+2n018971 0.0 101912
07:00+4e018098 0.0 1020105
10:00+9ne114640 0.0 10181253
13:00+12nne213532 0.0 10161832
16:00+13n223490 0.0 10151962
19:00+11nne214298 0.0 1015647
22:00+5ssw2259100 0.0 101714
14 may, fri
fri1401:00+5ssw2263100 0.0 101726
04:00+4ssw2267100 0.0 101623
07:00+7wsw1259100 0.0 101578
10:00+9sw3463100 0.3 10141085
13:00+9wsw2469100 1.3 10151201
16:00+6w3588100 2.3 1015787
19:00+4sw249697 7.6 1019186
22:00+4w3593100 1.3 1020206